Location: Spring Creek
(38.2870°N, 100.2160°W)
Time: 12:24:33
(UTC+00:00)

Cosmos 1437 Rocket - Pass Details

Date: 08 May 2021
Orbit: 501 x 565 km, 81.2° (Epoch: 22 June)

Event Time Altitude Azimuth Distance (km) Brightness Sun altitude
Exits shadow 02:56:30 - 185° (S) 1,985 5.4 -14.2°
Reaches altitude 10° 02:57:07 10° 185° (S) 1,731 5.1 -14.3°
Maximum altitude 03:00:55 82° 98° (E) 531 2.6 -14.9°
Drops below altitude 10° 03:04:50 10° 11° (N) 1,781 5.8 -15.5°
Sets 03:07:01 0° 10° (N) 2,687 6.7 -15.9°
